Home   Weather   Santiago   Past weeks

Flag for Chile Past Weather in Santiago, Chile — Yesterday and Last 2 Weeks

Now
50 °F

Clear.


Feels Like: 50 °F
Forecast: 44 / 67 °F
Wind: 2 mph from North

Location: Pudahuel

Current Time: Apr 24, 2017 at 10:50:54 am

Latest Report: Apr 24, 2017 at 10:00 am


Visibility: 5 mi

Pressure: 30.04 "Hg (28.02 "Hg at 576m altitude)

Humidity: 62%

Dew Point: 37 °F

Location of SantiagoLocation

Past Weather in Santiago — Graph

°F

Santiago Temperature Yesterday

Maximum temperature yesterday: 72 °F (at 2:00 pm)
Minimum temperature yesterday: 48 °F (at 9:00 am)
Average temperature yesterday: 60 °F

High & Low Weather Summary for the Past Weeks

 TemperatureHumidityPressure
High88 °F (Apr 11, 4:00 pm)94% (Apr 20, 7:00 am)30.18 "Hg (Apr 20, 7:00 am)
Low41 °F (Apr 10, 8:00 am)12% (Apr 11, 4:00 pm)29.83 "Hg (Apr 11, 4:00 pm)
Average62 °F61%29.99 "Hg
* Reported Apr 9 9:00 am — Apr 24 9:00 am, Santiago, Weather by CustomWeather, © 2017

Note: Actual official high and low records may vary slightly from our data, if they occured in-between our weather recording intervals... More about our weather records

Advertising

Santiago Weather History for the Previous 24 Hours

Scroll right to see more
 ConditionsComfort  
Time TempWeatherWind HumidityBarometerVisibility
9:00 am
Mon, Apr 24
45 °FClear.2 mph71%30.04 "Hg5 mi
8:00 am45 °FClear.No wind71%30.04 "Hg10 mi
7:00 am46 °FPassing clouds.3 mph71%30.04 "HgN/A
6:00 am48 °FClear.2 mph62%30.04 "Hg10 mi
5:00 am48 °FPassing clouds.No wind66%30.04 "HgN/A
4:00 am46 °FClear.2 mph71%30.07 "Hg10 mi
3:00 am46 °FClear.2 mph71%30.07 "Hg10 mi
2:00 am50 °FClear.2 mph62%30.07 "Hg10 mi
1:00 am52 °FClear.2 mph62%30.07 "Hg10 mi
12:00 am55 °FClear.3 mph59%30.07 "Hg10 mi
11:00 pm
Sun, Apr 23
57 °FClear.6 mph55%30.07 "Hg10 mi
10:00 pm59 °FClear.7 mph51%30.07 "Hg10 mi
9:00 pm59 °FClear.9 mph48%30.07 "Hg10 mi
8:00 pm64 °FClear.12 mph32%30.04 "Hg10 mi
7:00 pm66 °FScattered clouds.16 mph32%30.04 "HgN/A
6:00 pm72 °FPartly sunny.15 mph31%30.01 "HgN/A
5:00 pm72 °FPartly sunny.14 mph27%30.01 "HgN/A
4:00 pm70 °FPartly sunny.16 mph33%30.01 "HgN/A
3:00 pm72 °FPartly sunny.9 mph33%30.01 "HgN/A
2:00 pm72 °FPartly sunny.7 mph29%30.04 "HgN/A
1:00 pm68 °FScattered clouds.3 mph40%30.04 "HgN/A
12:00 pm64 °FScattered clouds.2 mph49%30.07 "HgN/A
11:00 am61 °FScattered clouds.2 mph55%30.07 "HgN/A
10:00 am55 °FClear.5 mph67%30.07 "Hg5 mi
Weather by CustomWeather, © 2017

See weather overviewHow to use our weather pages